OAS061 MPTO-SKBO

Flight info

Callsign OAS061
Flight time N/A
Altitude 37000
Route REMAL1A REMAL KAKOL UP530 RNG UQ121 ISVAT ISVAT5E
Aircraft B38M/M-SDE1FGHILORVWXY/HB1

Departure

Time 2026-04-30 01:18
Airport Tocumen International Airport (MPTO)

Arrival

Time N/A
Airport El Dorado International Airport (SKBO)
Time Latitude Longitude Altitude Speed Heading
2026-04-30 01:04 9.06973 -79.38535 33 ft 0 kts 305°
2026-04-30 01:09 9.06966 -79.38525 33 ft 4 kts 303°
2026-04-30 01:09 9.06952 -79.38502 33 ft 4 kts 299°
2026-04-30 01:09 9.06939 -79.38478 33 ft 4 kts 303°
2026-04-30 01:10 9.06921 -79.38459 33 ft 4 kts 336°
2026-04-30 01:10 9.06916 -79.38457 33 ft 0 kts 346°
2026-04-30 01:13 9.06919 -79.38458 33 ft 2 kts 346°
2026-04-30 01:13 9.06946 -79.38460 33 ft 6 kts
2026-04-30 01:13 9.07000 -79.38441 33 ft 10 kts 27°
2026-04-30 01:13 9.07072 -79.38402 33 ft 13 kts 28°
2026-04-30 01:14 9.07134 -79.38376 33 ft 3 kts 346°
2026-04-30 01:14 9.07143 -79.38388 33 ft 3 kts 296°
2026-04-30 01:14 9.07158 -79.38418 33 ft 6 kts 297°
2026-04-30 01:14 9.07184 -79.38460 33 ft 8 kts 305°
2026-04-30 01:15 9.07214 -79.38513 34 ft 9 kts 300°
2026-04-30 01:15 9.07246 -79.38572 36 ft 9 kts 291°
2026-04-30 01:15 9.07260 -79.38626 40 ft 5 kts 283°
2026-04-30 01:15 9.07264 -79.38639 42 ft 0 kts 288°
2026-04-30 01:16 9.07264 -79.38641 42 ft 1 kts 288°
2026-04-30 01:16 9.07268 -79.38653 44 ft 2 kts 289°
2026-04-30 01:16 9.07274 -79.38671 46 ft 3 kts 289°
2026-04-30 01:17 9.07286 -79.38700 47 ft 6 kts 305°
2026-04-30 01:17 9.07334 -79.38700 48 ft 15 kts 28°
2026-04-30 01:17 9.07658 -79.38519 50 ft 91 kts 31°
2026-04-30 01:17 9.08405 -79.38061 49 ft 156 kts 30°
2026-04-30 01:18 9.09434 -79.37429 459 ft 180 kts 29°
2026-04-30 01:18 9.10529 -79.36703 1082 ft 196 kts 39°
2026-04-30 01:18 9.11128 -79.35541 1701 ft 188 kts 82°
2026-04-30 01:18 9.10931 -79.34156 2099 ft 212 kts 104°
2026-04-30 01:19 9.10459 -79.32666 2244 ft 231 kts 104°
2026-04-30 01:19 9.09975 -79.31072 2190 ft 241 kts 104°
2026-04-30 01:19 9.09488 -79.29440 2282 ft 251 kts 104°
2026-04-30 01:19 9.08984 -79.27730 2387 ft 255 kts 103°
2026-04-30 01:20 9.08476 -79.26007 2756 ft 254 kts 103°
2026-04-30 01:20 9.07971 -79.24298 3696 ft 257 kts 104°
2026-04-30 01:20 9.07457 -79.22552 4560 ft 260 kts 104°
2026-04-30 01:20 9.06941 -79.20798 5487 ft 262 kts 104°
2026-04-30 01:21 9.06417 -79.19017 6339 ft 266 kts 105°
2026-04-30 01:21 9.05900 -79.17201 7126 ft 272 kts 100°
2026-04-30 01:21 9.05755 -79.15253 7676 ft 284 kts 89°
2026-04-30 01:21 9.05724 -79.13255 8532 ft 285 kts 90°
2026-04-30 01:22 9.05684 -79.11230 9318 ft 290 kts 91°
2026-04-30 01:22 9.05642 -79.09174 10090 ft 294 kts 91°
2026-04-30 01:22 9.05598 -79.07093 10813 ft 298 kts 91°
2026-04-30 01:22 9.05553 -79.04983 11554 ft 302 kts 91°
2026-04-30 01:23 9.05507 -79.02848 12294 ft 305 kts 91°
2026-04-30 01:23 9.05460 -79.00686 13033 ft 309 kts 91°
2026-04-30 01:23 9.05413 -78.98496 13752 ft 313 kts 91°
2026-04-30 01:23 9.05365 -78.96281 14399 ft 317 kts 92°
2026-04-30 01:24 9.05317 -78.94069 15057 ft 320 kts 92°
2026-04-30 01:24 9.05267 -78.91808 15709 ft 323 kts 92°
2026-04-30 01:24 9.05217 -78.89520 16350 ft 327 kts 92°
2026-04-30 01:24 9.05166 -78.87206 16977 ft 330 kts 92°
2026-04-30 01:25 9.05102 -78.84871 17554 ft 336 kts 95°
2026-04-30 01:25 9.04526 -78.82540 17723 ft 352 kts 116°
2026-04-30 01:25 9.03113 -78.80476 17921 ft 365 kts 133°
2026-04-30 01:25 9.01391 -78.78533 18201 ft 375 kts 132°
2026-04-30 01:26 8.99652 -78.76567 18728 ft 376 kts 132°
2026-04-30 01:26 8.97887 -78.74585 19143 ft 381 kts 133°
2026-04-30 01:26 8.96107 -78.72594 19606 ft 383 kts 133°
2026-04-30 01:26 8.94310 -78.70586 20046 ft 387 kts 133°
2026-04-30 01:27 8.92496 -78.68561 20486 ft 390 kts 133°